sat.trackr.live / text

‹ back to catalog

KUIPER-00152

NORAD 65772 · 2025-217L

PAYLOAD ACTIVE UNKNOWN

§ Identity

Operator
Country
US
Launch date
2025-09-25
Launch site
AFETR
Launch vehicle
Mass (kg)
RCS (m²)

External: N2YO · Heavens-Above · Gunter

§ Orbital elements

Epoch: 2026-09-20T10:52:03.128736Z

Period
97.30 min
Inclination
51.9007°
Eccentricity
0.0000720
Mean motion
14.79935442 rev/d
Perigee alt
629.0 km
Apogee alt
630.0 km
Semi-major
7,007.7 km
B*
2.7889e-4
RAAN
249.3609°
Arg perigee
44.1095°
Mean anomaly
315.9925°
Rev number
5,389

§ Raw data

KUIPER-001521 65772U 25217L   26263.45281399  .00001906  00000+0  27889-3 0  99962 65772  51.9007 249.3609 0000720  44.1095 315.9925 14.79935442 53893

JSON: /api/v1/satellites/65772 · /tle

For live sub-satellite position, see the globe view (requires WebGL).

§ Visibility from observer

Set your observer location to see the next 7 days of passes ≥ 10°. The values pass through the URL so the page stays shareable.

No JS? Fill the form by hand. The geolocation button needs JavaScript.